This demonstration page uses our WeatherBlox Daily Observations layout. Learn more.

Left ArrowRight Arrow

36.19886, -115.1175

Hourly Observations for May 13, 2020

Temp ( °F °C ) Dew Point ( °F °C ) Humidity (%) Winds ( mph kmh ) Pressure ( in mb ) Visibility ( mi km ) Precip ( " mm )
12:53 am 00:53 Clear 69 20.6 35 1.7 29 29 S 8 13 29.73 1007 10 16 N/A
1:53 am 01:53 Clear 69 20.6 34 1.1 27 27 S 12 19 29.72 1006 10 16 N/A
2:53 am 02:53 Clear 67 19.4 35 1.7 31 31 SSW 10 17 29.73 1007 10 16 N/A
3:53 am 03:53 Clear 66 18.9 36 2.2 33 33 SW 7 11 29.75 1008 10 16 N/A
4:53 am 04:53 Clear 64 17.8 36 2.2 35 35 N N/A 29.78 1008 10 16 N/A
5:53 am 05:53 Sunny 63 17.2 37 2.8 38 38 N 6 9 29.79 1009 10 16 N/A
6:53 am 06:53 Sunny 66 18.9 38 3.3 36 36 NNW 9 15 29.81 1010 10 16 N/A
7:53 am 07:53 Sunny 68 20 38 3.3 33 33 W 7 11 29.82 1010 10 16 N/A
8:53 am 08:53 Sunny 71 21.7 37 2.8 29 29 NNW 12 19 29.85 1011 10 16 N/A
9:53 am 09:53 Sunny 74 23.3 36 2.2 25 25 NW 9 15 29.85 1011 10 16 N/A
10:53 am 10:53 Sunny 75 23.9 35 1.7 23 23 ENE 5 7 29.85 1011 10 16 N/A
11:53 am 11:53 Sunny 77 25 34 1.1 21 21 SW 6 9 29.85 1011 10 16 N/A
12:53 pm 12:53 Sunny 80 26.7 33 0.6 18 18 VRB 7 11 29.83 1010 10 16 N/A
1:53 pm 13:53 Sunny 82 27.8 34 1.1 18 18 ESE 10 17 29.80 1009 10 16 N/A
2:53 pm 14:53 Sunny 81 27.2 34 1.1 18 18 N N/A 29.78 1009 10 16 N/A
3:53 pm 15:53 Sunny 84 28.9 32 undefined 15 15 S 14 22 29.76 1008 10 16 N/A
4:53 pm 16:53 Sunny 86 30 34 1.1 15 15 S 14 22 29.75 1007 10 16 N/A
5:53 pm 17:53 Sunny 84 28.9 32 undefined 15 15 WSW 13 20 29.74 1007 10 16 N/A
6:53 pm 18:53 Sunny 83 28.3 32 undefined 16 16 SW 14 22 29.74 1007 10 16 N/A
7:53 pm 19:53 Clear 80 26.7 32 undefined 17 17 SW 12 19 29.75 1008 10 16 N/A
8:53 pm 20:53 Clear 79 26.1 32 undefined 18 18 SSW 15 24 29.76 1008 10 16 N/A
9:53 pm 21:53 Clear 78 25.6 32 undefined 19 19 S 14 22 29.78 1008 10 16 N/A
10:53 pm 22:53 Clear 76 24.4 24 -4.4 14 14 SSW 15 24 29.78 1008 10 16 N/A
11:53 pm 23:53 Clear 73 22.8 25 -3.9 17 17 SSE 7 11 29.78 1009 10 16 N/A

Powered by AerisWeather